User: anonymous   Login
Location: Prairie State College
(41.5244°N, 87.6382°W)
Time: 18:33:31
(UTC-05:00)
Language:

Cosmos 1943 - Orbit

View from above orbital plane
View from above orbital plane
View from above satellite
View from above satellite

Ground track
Ground track

The orbit data is extracted from the following two-line orbital elements,

1 19119U 88039A   16120.57091558 -.00000002  00000-0  23766-4 0  9990
2 19119  71.0031 250.3540 0012710 318.3935 116.8033 14.15057642443588
Epoch (UTC): 29 April 2016 13:42:07
Eccentricity: 0.0012710
inclination: 71.0031°
perigee height: 833 km
apogee height: 851 km
right ascension of ascending node: 250.3540°
argument of perigee: 318.3935°
revolutions per day: 14.15057642
mean anomaly at epoch: 116.8033°
orbit number at epoch: 44358

The dashed part of the orbit path shows where the satellite is in the earth's shadow,  

DLR